EW7336 Weather Reports


time (UTC)temp
F
wind
direction
speed
knots
gust
knots
rain 1hr
in
rain 24hr
in
rain mn
in
humidity
%
barometer
mb
20260902194522 93 178 1.7 7.0 0.00 0.00 0.00 58 1014.8
20260902193016 93 282 0.0 7.0 0.00 0.00 0.00 60 1015.0
20260902191515 93 245 2.6 7.0 0.00 0.00 0.00 58 1015.2
20260902190024 93 191 0.9 6.1 0.00 0.00 0.00 62 1015.4
20260902184514 92 166 2.6 7.8 0.00 0.00 0.00 59 1015.3
20260902183012 92 223 1.7 7.0 0.00 0.00 0.00 61 1015.5
20260902181507 91 213 0.9 7.8 0.00 0.00 0.00 62 1015.6
20260902180007 91 182 2.6 6.1 0.00 0.00 0.00 63 1015.6
20260902174503 91 196 3.5 7.0 0.00 0.00 0.00 63 1015.8
20260902173101 90 171 2.6 7.8 0.00 0.00 0.00 64 1015.9
20260902171558 90 202 1.7 7.0 0.00 0.00 0.00 65 1016.2
20260902170056 90 196 2.6 9.6 0.00 0.00 0.00 66 1016.3
20260902164552 89 192 2.6 8.7 0.00 0.00 0.00 69 1016.4
20260902163050 89 239 2.6 7.8 0.00 0.00 0.00 67 1016.5
20260902161552 88 225 3.5 7.0 0.00 0.00 0.00 67 1016.6
20260902160042 88 232 2.6 6.1 0.00 0.00 0.00 69 1016.5
20260902154538 87 212 1.7 6.1 0.00 0.00 0.00 70 1016.6
20260902153037 87 205 2.6 5.2 0.00 0.00 0.00 70 1016.6
20260902151531 86 227 0.9 7.8 0.00 0.00 0.00 72 1016.6
20260902150027 85 170 2.6 5.2 0.00 0.00 0.00 74 1016.7
20260902144522 85 260 1.7 7.0 0.00 0.00 0.00 74 1016.8
20260902143018 84 279 0.9 4.3 0.00 0.00 0.00 77 1016.7
20260902141515 83 228 0.9 4.3 0.00 0.00 0.00 79 1016.8
20260902140008 82 223 1.7 4.3 0.00 0.00 0.00 82 1016.7
20260902134504 80 196 0.9 3.5 0.00 0.00 0.00 84 1016.8
20260902133100 79 196 1.7 4.3 0.00 0.00 0.00 86 1016.9
20260902131605 77 192 0.9 3.5 0.00 0.00 0.00 89 1016.9
20260902130152 76 360 0.9 2.6 0.00 0.00 0.00 91 1016.9
20260902124557 75 192 0.0 1.7 0.00 0.00 0.00 94 1016.8
20260902123046 73 192 0.0 0.9 0.00 0.00 0.00 96 1016.9
20260902121546 72 192 0.0 1.7 0.00 0.00 0.00 96 1016.8
20260902120040 71 192 0.0 0.9 0.00 0.00 0.00 96 1016.6
20260902114538 70 192 0.0 0.0 0.00 0.00 0.00 96 1016.4
20260902113034 70 192 0.0 0.0 0.00 0.00 0.00 95 1016.3
20260902111540 70 192 0.0 0.0 0.00 0.00 0.00 95 1016.2
20260902110037 70 192 0.0 0.0 0.00 0.00 0.00 95 1016.1
20260902104539 70 192 0.0 0.0 0.00 0.00 0.00 95 1016.1
20260902103029 70 192 0.0 0.0 0.00 0.00 0.00 95 1016.0
20260902101536 70 192 0.0 0.0 0.00 0.00 0.00 95 1016.1
20260902100031 71 192 0.0 0.0 0.00 0.00 0.00 95 1015.9
20260902094524 71 192 0.0 0.0 0.00 0.00 0.00 94 1015.9
20260902093023 71 192 0.0 0.0 0.00 0.00 0.00 94 1015.7
20260902091530 71 192 0.0 0.0 0.00 0.00 0.00 94 1015.7
20260902090020 71 192 0.0 0.0 0.00 0.00 0.00 94 1015.7
20260902084619 71 192 0.0 0.0 0.00 0.00 0.00 94 1015.6
20260902083016 71 192 0.0 0.0 0.00 0.00 0.00 94 1015.4
20260902081518 71 192 0.0 0.0 0.00 0.00 0.00 94 1015.2
20260902080013 71 192 0.0 0.0 0.00 0.00 0.00 94 1015.3
20260902074513 71 192 0.0 0.0 0.00 0.00 0.00 93 1015.2
20260902073016 71 192 0.0 0.0 0.00 0.00 0.00 93 1015.1
20260902071517 72 192 0.0 0.0 0.00 0.00 0.00 93 1015.1
20260902070009 72 192 0.0 0.0 0.00 0.00 0.00 94 1015.2
20260902064508 72 192 0.0 0.0 0.00 0.00 0.00 94 1015.2
20260902063012 72 192 0.0 0.0 0.00 0.00 0.00 94 1015.3
20260902061506 72 192 0.0 0.0 0.00 0.00 0.00 93 1015.3
20260902060014 72 192 0.0 0.0 0.00 0.00 0.00 93 1015.2
20260902054506 72 192 0.0 0.0 0.00 0.00 0.00 92 1015.3
20260902053001 73 192 0.0 0.0 0.00 0.00 0.00 92 1015.3
20260902051559 73 192 0.0 0.0 0.00 0.00 0.00 92 1015.2
20260902050105 73 192 0.0 0.0 0.00 0.00 0.00 92 1015.2
20260902044556 73 192 0.0 0.0 0.00 0.00 0.00 92 1015.1
20260902043053 74 192 0.0 0.0 0.00 0.00 0.00 92 1015.2
20260902041604 74 192 0.0 0.0 0.00 0.00 0.00 92 1015.3
20260902040049 74 192 0.0 0.0 0.00 0.00 0.00 91 1015.3
20260902034553 74 192 0.0 0.0 0.00 0.00 0.00 91 1015.3
20260902033103 75 192 0.0 0.0 0.00 0.00 0.00 91 1015.2
20260902031546 75 192 0.0 0.0 0.00 0.00 0.00 90 1015.3
20260902030045 75 192 0.0 0.0 0.00 0.00 0.00 90 1015.2
20260902024546 76 192 0.0 0.0 0.00 0.00 0.00 89 1015.2
20260902023044 76 192 0.0 0.0 0.00 0.00 0.00 88 1015.1
20260902021601 77 192 0.0 0.0 0.00 0.00 0.00 87 1015.1
20260902020042 78 192 0.0 0.0 0.00 0.00 0.00 87 1015.2
20260902014543 78 192 0.0 0.0 0.00 0.00 0.00 85 1015.1
20260902013042 79 192 0.0 0.0 0.00 0.00 0.00 84 1015.0
20260902011543 81 192 0.0 0.0 0.00 0.00 0.00 82 1014.8
20260902010055 82 192 0.0 0.0 0.00 0.00 0.00 80 1014.7
20260902004545 84 192 0.0 0.0 0.00 0.00 0.00 76 1014.5
20260902003040 86 192 0.0 0.0 0.00 0.00 0.00 73 1014.4
20260902001539 88 192 0.0 0.0 0.00 0.00 0.00 70 1014.5
20260902000049 90 192 0.0 0.0 0.00 0.00 0.00 66 1014.6
20260901234602 91 192 0.0 0.0 0.00 0.00 0.00 66 1014.7
20260901233135 91 192 0.0 0.0 0.00 0.00 0.00 66 1014.8
20260901231546 92 192 0.0 0.9 0.00 0.00 0.00 61 1014.9
20260901230045 92 192 0.0 2.6 0.00 0.00 0.00 59 1014.9
20260901224537 92 192 2.6 6.1 0.00 0.00 0.00 56 1014.7
20260901223042 93 193 0.0 4.3 0.00 0.00 0.00 57 1014.8
20260901221535 93 193 2.6 4.3 0.00 0.00 0.00 55 1014.8
20260901220034 93 196 0.9 3.5 0.00 0.00 0.00 58 1014.7
20260901214530 93 197 1.7 4.3 0.00 0.00 0.00 57 1014.7
20260901213030 93 180 0.9 4.3 0.00 0.00 0.00 56 1014.7
20260901211541 93 186 1.7 5.2 0.00 0.00 0.00 55 1014.7
20260901210026 93 209 1.7 5.2 0.00 0.00 0.00 58 1014.8
20260901204538 93 161 0.9 7.0 0.00 0.00 0.00 59 1014.9
20260901203025 93 213 0.9 5.2 0.00 0.00 0.00 59 1014.9
20260901201520 93 223 2.6 6.1 0.00 0.00 0.00 59 1015.0
20260901200033 92 199 2.6 5.2 0.00 0.00 0.00 59 1015.1